INTELSAT 25 (IS-25)

Last updated on Thu Apr 09 2026 00:02:48 GMT+0000 (Coordinated Universal Time)

1 33153U 08034A 26098.37702914 -.00000220 00000+0 00000+0 0 9991 2 33153 2.5268 81.1410 0002839 261.0318 318.6857 1.00277301 64995
UTC large
Height (km)
Speed (km/s)
/
Latitude / Longitude
Inclination (degrees)
Orbital Period (minutes)
Azimuth
Elevation
Range (km)
Doppler Factor

Next 0 passes for location: London (51.5072 / 0.1276)

Sorry there are no passes over London.